Regional Weather Roundup
Issued by NWS

Home | Current Version | Previous Version | Text Only | Print | Product List | Glossary On
Versions: 1 2 3 4 5 6 7 8 9 10 11 12 13 14 15 16 17 18 19 20 21 22 23 24 25 26 27 28 29 30 31 32 33 34 35 36 37 38 39 40 41 42 43 44 45 46 47 48 49 50
000
ASUS43 KLOT 221210
RWRIL

ILLINOIS REGIONAL WEATHER ROUNDUP
NATIONAL WEATHER SERVICE CHICAGO/ROMEOVILLE IL
700 AM CDT FRI AUG 22 2014

NOTE: "FAIR" INDICATES FEW OR NO CLOUDS BELOW 12,000 FEET WITH NO
SIGNIFICANT WEATHER AND/OR OBSTRUCTIONS TO VISIBILITY.

* THESE STATIONS ARE NOT UNDER NWS QUALITY CONTROL. THEY ALSO MAY NOT
  REPORT WEATHER SUCH AS PRECIPITATION OR FOG.

ILZ001-002-007-009-015-016-024-221300-
NORTHWEST ILLINOIS

CITY           SKY/WX    TMP DP  RH WIND       PRES   REMARKS
MOLINE         CLOUDY    78  73  84 W6        29.90R HX  81
6HR MIN TEMP:  73; 6HR MAX TEMP:  78;

STERLING*      CLOUDY    73  72  94 SE5       29.92R
SAVANNA*       CLOUDY    74  72  93 CALM      29.91R FOG
$$

ILZ003-004-008-010-011-017-018-221300-
NORTH CENTRAL ILLINOIS

CITY           SKY/WX    TMP DP  RH WIND       PRES   REMARKS
ROCKFORD       CLOUDY    73  70  90 S9        29.94S
6HR MIN TEMP:  73; 6HR MAX TEMP:  75;

FREEPORT*      MOCLDY    73  72  97 SE3       29.96R FOG
ROCHELLE*      CLOUDY    72  71  95 S7        29.94S FOG
DE KALB*       MOCLDY    71  70  97 S7        29.94F
PERU*          CLOUDY    73  71  94 SE6       29.94S
$$

ILZ005-006-012>014-019>023-221300-
NORTHEAST ILLINOIS

CITY           SKY/WX    TMP DP  RH WIND       PRES   REMARKS
CHICAGO-OHARE  MOCLDY    74  70  87 SW3       29.92R
6HR MIN TEMP:  72; 6HR MAX TEMP:  75; 6HR PCP:  1.64;

CHICAGO-MIDWAY MOCLDY    75  73  93 S6        29.93R
6HR MIN TEMP:  74; 6HR MAX TEMP:  76; 6HR PCP:  3.17;

AURORA         MOCLDY    74  70  87 S8        29.93S
6HR MIN TEMP:  73; 6HR MAX TEMP:  74; 6HR PCP:  0.16;

LANSING*       MOCLDY    72  71  98 S8        29.94R
JOLIET*        CLOUDY    73  71  93 S5        29.94S
WAUKEGAN       FOG       71  69  93 CALM      29.93R VSB 1
6HR MIN TEMP:  69; 6HR MAX TEMP:  71; 6HR PCP:  0.08;

DUPAGE AIRPORT MOCLDY    74  71  91 S8        29.93R
6HR MIN TEMP:  73; 6HR MAX TEMP:  75; 6HR PCP:  1.70;

KANKAKEE*      CLOUDY    73  71  95 SW8       29.95F
WHEELING       MOCLDY    74  72  93 CALM      29.94R
6HR MIN TEMP:  73; 6HR MAX TEMP:  75; 6HR PCP:  0.62;

MORRIS*        CLOUDY    74  74 100 S6        29.94F
ROMEOVILLE*    MOCLDY    73  73  99 SW8       29.93R
NORTHERLY ISL    N/A     74  70  87 SW3         N/A
$$

LMZ740>746-221300-
SOUTHERN LAKE MICHIGAN

STATION/POSITION SKY/WX   TEMP    WIND        PRES    VSBY  WAVE
                          AIR SEA DIR/SP/G                  HT/PER
                          (F)     (DEG/KT/KT) (MB)    (MI)  (FT/S)
SOUTHERN BUOY              69 68  150/  6/  6 1013.1S         0
WAUKEGAN HARBOR            71      CALM  /  3   N/A
HARRISON CRIB              74     250/  2/  5   N/A
BURNHAM HARBOR             74     210/  3/  6   N/A
CALUMET HARBOR             72     200/  4/  5 1012.5R
MICHIGAN CITY              74     160/  6/  8   N/A
MICHIGAN CITY 6N           72 70   90/  6/  6   N/A           1
ST. JOSEPH                 71 71  140/  4/  6   N/A           1
$$

ILZ025>027-034>036-040-047-049-050-058-095>099-221300-
WEST-CENTRAL ILLINOIS

CITY           SKY/WX    TMP DP  RH WIND       PRES   REMARKS
QUINCY         CLOUDY    76  71  85 SW5       29.96R
GALESBURG*     RAIN      74  74  98 CALM      29.94F
MACOMB*        CLOUDY    74  74 100 E3        29.98R
JACKSONVILLE*  PTCLDY    77  73  86 CALM      29.97R
PITTSFIELD*    PTCLDY    78  71  76 W7        29.98R HX  81
$$

ILZ028>032-037-038-041>044-048-051>054-059>061-221300-
CENTRAL ILLINOIS

CITY           SKY/WX    TMP DP  RH WIND       PRES   REMARKS
PONTIAC        TSTM      75  75 100 S7        29.94F
DECATUR        MOCLDY    79  71  76 W8        29.98R HX  82
PEORIA         RAIN      75  70  84 SW5       29.97R
6HR MIN TEMP:  75; 6HR MAX TEMP:  81; 6HR PCP:  0.51;

LACON*         CLOUDY    73  69  89 SE5       29.92F
LINCOLN*       CLOUDY    77  74  88 CALM      29.94F
SPRINGFIELD    CLOUDY    77  72  84 CALM      29.98R
6HR MIN TEMP:  76; 6HR MAX TEMP:  81;

TAYLORVILLE    PTCLDY    72  70  94 SW6       29.97R
$$

ILZ033-039-045-046-055>057-062-063-221300-
EAST-CENTRAL ILLINOIS

CITY           SKY/WX    TMP DP  RH WIND       PRES   REMARKS
CHAMPAIGN      CLOUDY    76  74  93 NW6       30.00R
DANVILLE*      HVY RAIN  73  72  94 N6        29.98R
RANTOUL*       TSTM      74  71  88 NE5       30.01R
MATTOON        CLOUDY    76  71  85 SW6       29.97R
PARIS*         CLOUDY    76  73  93 CALM      30.00R
$$

ILZ079-100>102-221300-
SOUTHWEST ILLINOIS

CITY           SKY/WX    TMP DP  RH WIND       PRES   REMARKS
ALTON          MOCLDY    73  73 100 SW7       29.97S
BELLEVILLE     CLEAR     72  72  99 VRB2      29.97R
CAHOKIA*       CLEAR     77  70  79 CALM      29.97R
SPARTA*        CLEAR     74  71  89 S7        30.01R
$$

ILZ064>066-069>071-074>076-080>082-084>086-088>090-092>094-221300-
SOUTH-CENTRAL ILLINOIS

CITY           SKY/WX    TMP DP  RH WIND       PRES   REMARKS
CARBONDALE     CLEAR     75  71  87 SW7       30.00R
6HR MIN TEMP:  73; 6HR MAX TEMP:  80;

CAIRO*         CLEAR     77  73  86 S6        30.05R
MARION         MOCLDY    75  73  94 SW6       30.02R
MT. VERNON     CLEAR     73  68  83 SW6       30.01R
CENTRALIA*     CLEAR     72  69  90 S6        29.99R
SALEM*         CLEAR     76  73  91 SW6       29.98S
METROPOLIS*    CLEAR     76  72  86 SW5       30.03S
$$

ILZ067-068-072-073-078-083-087-091-221300-
SOUTHEAST ILLINOIS

CITY           SKY/WX    TMP DP  RH WIND       PRES   REMARKS
LAWRENCEVILLE  CLOUDY    76  73  91 SW6       29.99R
FLORA*         CLOUDY    72  71  96 SW6       29.98S
FAIRFIELD*     CLEAR     73  73 100 S3        29.99R
HARRISBURG*    CLEAR     74  74 100 SW3       30.02S
ROBINSON*      CLOUDY    78  74  87 W6        29.98R HX  80
CARMI*         CLEAR     75  73  94 S5        30.00R
$$

ABBREVIATIONS USED IN REMARKS
   TC - TEMPERATURE IN CELSIUS
  WCI - WIND CHILL INDEX
   HX - HEAT INDEX
  VSB - VISIBILITY
$$



USA.gov is the U.S. government's official web portal to all federal, state and local government web resources and services.